[[{"header":{"parameterUnit":"m.s-1","parameterCategory":1,"la1":30.2991,"la2":30.254,"lo1":-89.0895,"lo2":-89.0444,"dy":0.0017,"dx":0.0017,"nx":28,"ny":28,"refTime":"2024-03-08T09:00:00:Z","depth":0,"parameterNumber":2,"parameterNumberName":"U-component_of_WINDS"},"data":[0,0,0,0,0,0,0,0,0,0,0,0,0,0,0,0,0,0,0,0,0,0,0,0,0,0,0,0,0,0,0,0,0,0,0,0,0,0,0,0,0,0,0,0,0,0,0,0,0,0,0,0,0,0,0,0,0,0,-0.7801,-0.7802,0,-0.793,-0.7932,-0.7933,-0.8032,-0.8033,-0.8034,-0.8035,-0.817,-0.8172,-0.8175,0,0,0,0,0,0,0,0,0,0,0,0,0,-0.7642,-0.7644,-0.7801,-0.7802,-0.7804,-0.793,-0.7932,-0.7933,-0.8032,-0.8033,-0.8034,-0.8035,-0.8169,-0.8172,-0.8175,0,0,0,0,0,0,0,0,0,0,0,0,0,-0.7735,-0.7645,-0.78,-0.7868,-0.7876,-0.793,-0.7932,-0.7934,-0.8032,-0.8033,-0.8035,-0.8036,-0.8168,-0.8172,-0.8176,-0.8173,0,0,-0.8188,-0.819,0,0,0,0,0,0,0,0,-0.7729,-0.774,-0.7857,-0.7864,-0.7872,-0.7966,-0.7925,-0.8014,-0.8031,-0.7973,-0.8035,-0.8037,-0.8101,-0.8111,-0.8132,-0.8179,-0.8185,-0.8188,-0.8191,-0.8193,-0.8194,0,0,0,0,0,0,0,-0.7723,-0.7736,-0.7852,-0.7858,-0.7868,-0.7893,-0.7908,-0.7942,-0.8028,-0.7978,-0.7985,-0.7999,-0.8105,-0.8128,-0.8136,-0.8187,-0.8188,-0.8192,-0.8194,-0.8196,-0.8239,-0.8238,0,0,0,0,0,0,-0.7705,-0.7729,-0.7848,-0.7856,-0.7803,-0.7895,-0.7911,-0.7935,-0.8027,-0.8043,-0.7998,-0.8003,-0.812,-0.8131,-0.8141,-0.8143,-0.8193,-0.8196,-0.8199,-0.824,-0.8239,-0.8237,0,0,0,0,0,0,-0.7702,-0.7715,-0.7843,-0.7795,-0.7813,-0.7896,-0.7922,-0.7937,-0.7959,-0.8043,-0.8058,-0.8005,-0.8122,-0.8135,-0.8164,-0.8149,-0.8198,-0.8202,-0.8242,-0.824,-0.8238,-0.8148,0,0,0,0,0,0,-0.7697,-0.7713,-0.7712,-0.7794,-0.7815,-0.7863,-0.7921,-0.7938,-0.7965,-0.7974,-0.8053,-0.8068,-0.8124,-0.8157,-0.8168,-0.8156,-0.8205,-0.8243,-0.8241,-0.8239,-0.8153,-0.8143,-0.8135,0,0,0,0,0,-0.7691,-0.7683,-0.7712,-0.7726,-0.7816,-0.7862,-0.7874,-0.7938,-0.7964,-0.7964,-0.8018,-0.8065,-0.815,-0.816,-0.8172,-0.8161,-0.8245,-0.8242,-0.8239,-0.8157,-0.8145,-0.8135,0,0,0,0,0,0,-0.7598,-0.7694,-0.7728,-0.7746,-0.7795,-0.7878,-0.788,-0.7924,-0.7967,-0.7973,-0.8051,-0.8068,-0.8089,-0.8129,-0.8138,-0.8164,-0.8203,-0.8203,-0.8136,-0.8126,-0.8117,-0.8107,-0.8209,0,0,0,0,0,-0.7579,-0.7607,-0.7691,-0.7699,-0.7722,-0.7796,-0.7819,-0.7864,-0.7918,-0.7939,-0.7995,-0.8046,-0.8085,-0.8108,-0.8148,-0.816,-0.8178,-0.8158,-0.815,-0.8142,-0.814,-0.8149,-0.814,-0.8228,-0.8228,-0.8228,0,0,-0.7541,-0.7598,-0.7611,-0.7682,-0.7725,-0.7752,-0.7813,-0.784,-0.7862,-0.7944,-0.7974,-0.8017,-0.8079,-0.8099,-0.8111,-0.8133,-0.812,-0.8138,-0.8132,-0.8134,-0.8145,-0.8136,-0.8129,-0.8226,-0.8226,-0.8226,0,0,-0.7486,-0.7532,-0.7543,-0.7585,-0.7649,-0.7699,-0.7702,-0.7779,-0.781,-0.7841,-0.7903,-0.7931,-0.7995,-0.8037,-0.8066,-0.8027,-0.8072,-0.8038,-0.7992,-0.7999,-0.7992,-0.7986,-0.7971,-0.7965,-0.8036,-0.8036,-0.8036,0,-0.7431,-0.7475,-0.7544,-0.7567,-0.7596,-0.7671,-0.7682,-0.772,-0.7794,-0.7813,-0.7837,-0.7918,-0.7966,-0.7996,-0.7986,-0.8008,-0.8014,-0.8028,-0.7988,-0.7983,-0.7978,-0.7965,-0.7959,-0.8032,-0.8032,-0.8033,-0.8033,0,-0.7404,-0.7433,-0.7434,-0.7502,-0.7532,-0.755,-0.7621,-0.7643,-0.7686,-0.7734,-0.7765,-0.7824,-0.7877,-0.7888,-0.7931,-0.7925,-0.7936,-0.7973,-0.8014,-0.7964,-0.7952,-0.7948,-0.8025,-0.8027,-0.8028,-0.8029,0,0,-0.7292,-0.7398,-0.7397,-0.7429,-0.7505,-0.753,-0.7551,-0.7602,-0.7618,-0.7668,-0.7687,-0.774,-0.7774,-0.7807,-0.7856,-0.7862,-0.7826,-0.7899,-0.7901,-0.7881,-0.7822,-0.7792,-0.7785,-0.7857,-0.7857,-0.7856,-0.7816,0,-0.7248,-0.7288,-0.735,-0.7371,-0.7398,-0.747,-0.7489,-0.7538,-0.7583,-0.7614,-0.7665,-0.7701,-0.7744,-0.7764,-0.7774,-0.7828,-0.7815,-0.7832,-0.7876,-0.7876,-0.7855,-0.7779,-0.7748,-0.7707,-0.7812,-0.7812,-0.7811,0,-0.7201,-0.7244,-0.7266,-0.734,-0.7354,-0.737,-0.7421,-0.745,-0.7507,-0.754,-0.7577,-0.7629,-0.7656,-0.7694,-0.7732,-0.7742,-0.7764,-0.7794,-0.7794,-0.7799,-0.7839,-0.778,-0.7696,-0.7689,-0.7805,-0.7805,-0.7806,0,-0.7115,-0.718,-0.7201,-0.7226,-0.7313,-0.7322,-0.7359,-0.7418,-0.7444,-0.749,-0.7508,-0.7556,-0.7582,-0.7619,-0.7683,-0.7706,-0.7714,-0.7758,-0.7741,-0.7739,-0.7738,-0.7737,-0.7654,-0.7755,-0.7755,-0.7755,-0.7755,0,-0.7058,-0.7068,-0.7164,-0.7176,-0.719,-0.7263,-0.7275,-0.7319,-0.7371,-0.7394,-0.7461,-0.7481,-0.7566,-0.7596,-0.7647,-0.767,-0.7682,-0.7709,-0.7722,-0.7702,-0.7698,-0.7715,-0.7719,-0.7754,-0.7754,-0.7754,-0.7754,0,-0.6963,-0.7028,-0.7056,-0.7136,-0.7156,-0.7163,-0.7232,-0.7247,-0.7297,-0.7325,-0.7336,-0.7414,-0.7454,-0.7522,-0.7582,-0.7616,-0.7628,-0.7652,-0.7608,-0.7616,-0.7594,-0.7595,-0.7519,-0.7512,-0.7618,-0.7617,-0.7616,0,-0.6921,-0.6931,-0.7012,-0.7031,-0.7065,-0.7097,-0.7123,-0.7196,-0.7221,-0.7288,-0.7295,-0.734,-0.7379,-0.7439,-0.7502,-0.7548,-0.7572,-0.7542,-0.7579,-0.7558,-0.7569,-0.7567,-0.7568,-0.7532,-0.7531,-0.753,-0.7529,0,-0.684,-0.6871,-0.6907,-0.6953,-0.6983,-0.7024,-0.7068,-0.7081,-0.7163,-0.7189,-0.7229,-0.7259,-0.732,-0.7363,-0.7418,-0.7458,-0.7506,-0.7517,-0.7515,-0.7493,-0.7467,-0.7479,-0.7583,-0.7518,-0.7519,-0.752,-0.752,-0.7521,-0.6769,-0.6781,-0.6839,-0.6876,-0.6917,-0.6956,-0.6974,-0.7026,-0.7061,-0.7114,-0.7156,-0.7193,-0.7251,-0.733,-0.7366,-0.7397,-0.742,-0.7418,-0.7417,-0.7415,-0.7406,-0.7463,-0.7408,-0.7408,-0.7409,-0.7409,-0.7409,0,-0.6689,-0.673,-0.6764,-0.6823,-0.6852,-0.6896,-0.6947,-0.6969,-0.7,-0.705,-0.7087,-0.7133,-0.7176,-0.7242,-0.7289,-0.7301,-0.7325,-0.7311,-0.731,-0.7318,-0.7384,-0.738,-0.7291,-0.7291,-0.7291,-0.7291,-0.7291,-0.7291,-0.6651,-0.6672,-0.671,-0.6752,-0.6794,-0.6829,-0.6855,-0.6892,-0.6931,-0.698,-0.7015,-0.7057,-0.7114,-0.7166,-0.7207,-0.7226,-0.7239,-0.7218,-0.7243,-0.7303,-0.7314,-0.7324,-0.732,-0.7221,-0.7221,-0.7175,-0.7174,-0.7174]},{"header":{"parameterUnit":"m.s-1","parameterCategory":1,"la1":30.2991,"la2":30.254,"lo1":-89.0895,"lo2":-89.0444,"dy":0.0017,"dx":0.0017,"nx":28,"ny":28,"refTime":"2024-03-08T09:00:00:Z","depth":0,"parameterNumber":3,"parameterNumberName":"V-component_of_WINDS"},"data":[0,0,0,0,0,0,0,0,0,0,0,0,0,0,0,0,0,0,0,0,0,0,0,0,0,0,0,0,0,0,0,0,0,0,0,0,0,0,0,0,0,0,0,0,0,0,0,0,0,0,0,0,0,0,0,0,0,0,5.4869,5.4871,0,5.5076,5.5078,5.5081,5.5114,5.5112,5.511,5.5108,5.5322,5.5329,5.5337,0,0,0,0,0,0,0,0,0,0,0,0,0,5.4506,5.4513,5.4869,5.4872,5.4874,5.5076,5.5078,5.5081,5.5114,5.5112,5.5109,5.5107,5.532,5.5328,5.5337,0,0,0,0,0,0,0,0,0,0,0,0,0,5.4683,5.4515,5.4869,5.4915,5.4921,5.5075,5.5079,5.5082,5.5114,5.5112,5.5109,5.5106,5.5317,5.5328,5.5339,5.5462,0,0,5.5373,5.5377,0,0,0,0,0,0,0,0,5.4673,5.4697,5.4905,5.4912,5.4919,5.5066,5.5029,5.521,5.5115,5.5041,5.5108,5.5105,5.5239,5.5257,5.5302,5.5472,5.5481,5.5374,5.538,5.5385,5.5388,0,0,0,0,0,0,0,5.4661,5.4688,5.4951,5.4908,5.4917,5.4926,5.4948,5.5063,5.5153,5.5047,5.505,5.5074,5.5243,5.5291,5.5307,5.5484,5.5373,5.5383,5.539,5.5394,5.577,5.5774,0,0,0,0,0,0,5.464,5.4678,5.4944,5.4957,5.4787,5.4935,5.496,5.5022,5.5152,5.5169,5.5076,5.5075,5.5273,5.5294,5.5314,5.5471,5.5385,5.5395,5.5402,5.5767,5.5771,5.5775,0,0,0,0,0,0,5.4632,5.4663,5.4936,5.4818,5.4854,5.4944,5.5013,5.5027,5.5075,5.5174,5.519,5.5109,5.5272,5.5299,5.5426,5.5478,5.54,5.541,5.5763,5.5768,5.5773,5.5782,0,0,0,0,0,0,5.4621,5.466,5.4707,5.4819,5.486,5.5043,5.5017,5.5033,5.5094,5.5094,5.5209,5.5225,5.5272,5.5409,5.5437,5.5492,5.5419,5.5759,5.5766,5.5771,5.5777,5.5786,5.5794,0,0,0,0,0,5.4608,5.4701,5.4709,5.4741,5.492,5.5046,5.5069,5.5121,5.5098,5.5147,5.5211,5.5221,5.5467,5.5422,5.5453,5.5513,5.5756,5.5764,5.5771,5.5773,5.5785,5.5794,0,0,0,0,0,0,5.4593,5.4717,5.4727,5.4858,5.4941,5.5051,5.5114,5.513,5.5222,5.5218,5.5278,5.5304,5.5429,5.5483,5.543,5.5641,5.561,5.5624,5.5601,5.5613,5.5621,5.5607,5.5428,0,0,0,0,0,5.4605,5.4696,5.4799,5.4905,5.4946,5.5023,5.5079,5.5112,5.52,5.5236,5.5309,5.5395,5.5492,5.5555,5.565,5.5784,5.5812,5.5841,5.585,5.5856,5.5869,5.5948,5.5963,5.5799,5.5799,5.5799,0,0,5.4631,5.4709,5.4763,5.4904,5.4972,5.5067,5.5052,5.5152,5.5223,5.5251,5.5377,5.5433,5.5533,5.5666,5.5728,5.5715,5.592,5.5866,5.587,5.588,5.5957,5.5973,5.5986,5.5805,5.5804,5.5803,0,0,5.4727,5.4794,5.4891,5.496,5.5063,5.5114,5.5137,5.5245,5.5284,5.541,5.5434,5.552,5.5685,5.5757,5.5815,5.594,5.5955,5.5969,5.6015,5.6091,5.6104,5.6116,5.6164,5.618,5.598,5.5981,5.5981,0,5.4746,5.4888,5.4939,5.504,5.5102,5.5131,5.5232,5.5296,5.5425,5.5469,5.5452,5.5662,5.5732,5.5883,5.5914,5.5959,5.599,5.5957,5.6098,5.611,5.6122,5.6169,5.6186,5.5982,5.5982,5.5982,5.5981,0,5.4909,5.5007,5.5074,5.5198,5.5268,5.5367,5.5435,5.55,5.5527,5.5579,5.5709,5.5794,5.5908,5.5945,5.5972,5.6102,5.6091,5.6085,5.6056,5.6138,5.6183,5.6201,5.5984,5.5983,5.5983,5.5983,0,0,5.5002,5.5154,5.5178,5.5236,5.5353,5.5431,5.5532,5.5643,5.5699,5.5787,5.5876,5.6016,5.6013,5.6078,5.6113,5.618,5.6278,5.6167,5.617,5.6187,5.643,5.6436,5.6456,5.6287,5.6291,5.6293,5.6423,0,5.5114,5.5296,5.5346,5.5501,5.5594,5.5624,5.5713,5.5795,5.5848,5.5936,5.5994,5.6094,5.6079,5.612,5.6187,5.6252,5.6328,5.6243,5.6374,5.6378,5.635,5.6479,5.6485,5.6603,5.6441,5.6444,5.6446,0,5.527,5.5362,5.5526,5.5633,5.5674,5.5753,5.5861,5.5943,5.6038,5.6072,5.6146,5.6175,5.6285,5.6248,5.6401,5.6342,5.6399,5.6439,5.6445,5.6461,5.6419,5.6502,5.6642,5.6661,5.6473,5.6471,5.6469,0,5.5326,5.549,5.561,5.5659,5.5786,5.5841,5.5897,5.5989,5.6053,5.6147,5.619,5.6295,5.6354,5.6435,5.6493,5.646,5.6644,5.661,5.6677,5.6676,5.6717,5.6714,5.6871,5.6747,5.6747,5.6747,5.6746,0,5.5448,5.5548,5.5638,5.5712,5.5826,5.5883,5.5994,5.6051,5.6133,5.6221,5.6252,5.6334,5.6404,5.6496,5.6541,5.6664,5.6689,5.6721,5.6733,5.6721,5.6717,5.6761,5.6755,5.6751,5.675,5.6749,5.6749,0,5.5531,5.5594,5.5728,5.5837,5.5867,5.5947,5.6042,5.6116,5.6169,5.628,5.6309,5.6394,5.6504,5.6569,5.6707,5.6739,5.6875,5.6882,5.6844,5.685,5.6914,5.6909,5.7107,5.7138,5.699,5.6992,5.6993,0,5.5606,5.5684,5.5802,5.5863,5.5919,5.6016,5.6082,5.6141,5.6209,5.6324,5.6386,5.6497,5.659,5.6765,5.684,5.6947,5.6958,5.702,5.6975,5.6961,5.6964,5.696,5.697,5.7029,5.703,5.7031,5.7032,0,5.5734,5.5762,5.5856,5.5962,5.604,5.6126,5.6212,5.626,5.6334,5.6409,5.6522,5.6594,5.6736,5.6848,5.6961,5.7021,5.7041,5.7046,5.7068,5.7058,5.7034,5.7052,5.6869,5.7042,5.7041,5.704,5.704,5.7039,5.5818,5.589,5.5985,5.609,5.616,5.624,5.6317,5.638,5.6474,5.6595,5.6624,5.6743,5.6839,5.6993,5.7055,5.7151,5.7141,5.7171,5.718,5.7188,5.7192,5.7016,5.7171,5.7171,5.7171,5.7171,5.7171,0,5.5952,5.6014,5.6109,5.6229,5.6312,5.6321,5.6417,5.6486,5.6591,5.6677,5.6768,5.6899,5.7008,5.7092,5.7204,5.7265,5.7277,5.7293,5.7291,5.7305,5.7192,5.7164,5.7281,5.7281,5.7281,5.7281,5.7281,5.7281,5.6031,5.6154,5.6194,5.6354,5.6416,5.6533,5.6587,5.6662,5.6732,5.6877,5.6968,5.7021,5.7108,5.7227,5.7328,5.735,5.7392,5.7407,5.7431,5.7324,5.7312,5.7301,5.7275,5.7414,5.7414,5.7536,5.7537,5.7538]}]]